Location: Brighton Point
(40.6144°N, 111.7933°W)
Time: 14:06:03
(UTC+00:00)

ISS - Pass Details

Date: 10 March 2021
Orbit: 418 x 422 km, 51.6° (Epoch: 17 April)

Event Time Altitude Azimuth Distance (km) Brightness Sun altitude
Exits shadow 12:30:26 20° 315° (NW) 1,030 -2.1 -15.2°
Maximum altitude 12:32:36 67° 35° (NE) 457 -3.5 -14.8°
Drops below altitude 10° 12:35:55 10° 118° (ESE) 1,491 -0.1 -14.2°
Sets 12:38:01 0° 121° (ESE) 2,352 0.9 -13.8°
